Location: ???? ??????? ????
(31.2176°N, 31.6797°E)
Time: 18:33:41
(UTC+00:00)

Atlas Centaur 2 - Pass Details

Date: 29 October 2020
Orbit: 459 x 1309 km, 30.4° (Epoch: 01 December)

Event Time Altitude Azimuth Distance (km) Brightness Sun altitude
Rises 17:17:22 0° 273° (W) 4,186 7.1 -28.4°
Reaches altitude 10° 17:20:13 10° 272° (W) 3,272 6.2 -29.0°
Maximum altitude 17:28:43 83° 187° (S) 1,314 3.0 -30.8°
Enters shadow 17:29:42 72° 119° (ESE) 1,356 2.9 -31.0°
